Location: Maccacari
(45.1333°N, 11.1333°E)
Time: 14:29:20
(UTC+00:00)

S-56A Canister/Altair - Pass Details

Date: 23 January 2021
Orbit: 631 x 2501 km, 38.9° (Epoch: 01 March)

Event Time Altitude Azimuth Distance (km) Brightness Sun altitude
Rises 01:33:39 0° 221° (SW) 3,041 - -53.4°
Reaches altitude 10° 01:36:33 10° 205° (SSW) 2,033 - -52.9°
Maximum altitude 01:39:52 20° 156° (SSE) 1,444 - -52.4°
Drops below altitude 10° 01:43:13 10° 108° (ESE) 2,057 - -51.9°
Sets 01:46:10 0° 92° (E) 3,090 - -51.5°
